Hourly Data Report for October 18, 2006

TORONTO CITY
ONTARIO

43°40'00.000" N
79°24'00.000" W
112.50 m
6158355
71508
XTO

Download Data

Hourly Data (October 2006)
Hourly Data Report for October 18, 2006
TIME
LST
Temp Definition
°C
Dew Point Definition
°C
Rel Hum Definition
%
Precip. Amount Definition
mm

Wind Dir Definition
10's deg

Wind Spd Definition
km/h
Visibility Definition
km
Stn Press Definition
kPa
Hmdx Definition


Wind Chill Definition


Weather Definition


00:00 13.7 11.7 88   LegendMM LegendMM   99.11     LegendNANA
01:00 13.5 11.3 87   LegendMM LegendMM   99.18     LegendNANA
02:00 13.5 10.8 84   LegendMM LegendMM   99.28     LegendNANA
03:00 13.3 10.7 84   LegendMM LegendMM   99.34     LegendNANA
04:00 13.2 10.3 83   LegendMM LegendMM   99.42     LegendNANA
05:00 13.1 10.0 81   LegendMM LegendMM   99.49     LegendNANA
06:00 12.9 9.8 81   LegendMM LegendMM   99.55     LegendNANA
07:00 12.7 10.0 84   LegendMM LegendMM   99.60     LegendNANA
08:00 12.7 10.0 84   LegendMM LegendMM   99.69     LegendNANA
09:00 12.8 10.2 84   LegendMM LegendMM   99.74     LegendNANA
10:00 12.7 10.1 84   LegendMM LegendMM   99.74     LegendNANA
11:00 13.9 10.7 81   LegendMM LegendMM   99.76     LegendNANA
12:00 15.1 11.1 77   LegendMM LegendMM   99.71     LegendNANA
13:00 14.8 11.3 80   LegendMM LegendMM   99.69     LegendNANA
14:00 15.1 11.6 80   LegendMM LegendMM   99.66     LegendNANA
15:00 15.5 12.0 80   LegendMM LegendMM   99.65     LegendNANA
16:00 14.9 12.0 83   LegendMM LegendMM   99.67     LegendNANA
17:00 14.2 12.1 87   LegendMM LegendMM   99.67     LegendNANA
18:00 13.5 12.0 91   LegendMM LegendMM   99.69     LegendNANA
19:00 13.6 12.3 92   LegendMM LegendMM   99.67     LegendNANA
20:00 13.3 12.1 92   LegendMM LegendMM   99.68     LegendNANA
21:00 13.3 12.3 94   LegendMM LegendMM   99.67     LegendNANA
22:00 13.3 12.4 94   LegendMM LegendMM   99.61     LegendNANA
23:00 13.2 12.2 94   LegendMM LegendMM   99.57     LegendNANA

Notes on Data Quality.

Legend

  • E = Estimated
  • M = Missing
  • NA = Not Available*
  • [empty] = Indicates an unobserved value
Date modified: